CQ0XBF-11 Chamusca PT current weather conditions

sailwx.info

Wind from 005 at 0 knots gusting 5

Air temperature 18.3° C
Dewpoint 11.9° C

Last reported at 2016-Aug-28 01:54 UTC.
Time now 2016-Aug-28 02:16 UTC

Location: N 39°21' W 008°28'.
View on Google Maps.

See reports from other nearby stations

  
Tides and Currents Weather Stations Pressure Air Temp Water Temp Dewpoint Dewpoint Depression Visibility Wind Speed Wind Dir Waves Ship Positions
date/time (UTC)wind fromknots sea level pressurealtimeterstation pressurevisibilityair tempwater tempwave heightnotes
2016-Aug-28 01:54 005 0 gusting 5 18.3
2016-Aug-28 01:48 271 2 gusting 5 18.3
2016-Aug-28 01:44 181 1 gusting 5 18.3
2016-Aug-28 01:38 105 1 gusting 4 18.3
2016-Aug-28 01:34 309 2 gusting 5 18.3
2016-Aug-28 01:28 334 1 gusting 6 18.3
2016-Aug-28 01:24 265 2 gusting 6 18.3
2016-Aug-28 01:18 227 4 gusting 6 18.3
2016-Aug-28 01:14 293 0 gusting 6 18.3
2016-Aug-28 01:08 194 1 gusting 6 18.3
2016-Aug-28 01:04 234 0 gusting 6 18.3
2016-Aug-28 01:00 307 4 gusting 6 18.9
2016-Aug-28 00:53 319 1 gusting 5 18.9
2016-Aug-28 00:49 316 2 gusting 4 18.9
2016-Aug-28 00:43 319 1 gusting 5 18.9
2016-Aug-28 00:39 253 2 gusting 4 18.9
2016-Aug-28 00:33 286 1 gusting 5 18.9
2016-Aug-28 00:29 309 1 gusting 5 18.9
2016-Aug-28 00:23 019 2 gusting 5 18.9
2016-Aug-28 00:19 296 1 gusting 5 18.9
2016-Aug-28 00:13 247 2 gusting 5 18.9
2016-Aug-28 00:09 282 2 gusting 5 18.9
2016-Aug-28 00:03 313 1 gusting 6 18.9
2016-Aug-27 23:59 303 0 gusting 5 18.9
2016-Aug-27 23:55 292 5 gusting 6 18.9
2016-Aug-27 23:49 307 3 gusting 6 19.4
2016-Aug-27 23:45 253 2 gusting 6 19.4
2016-Aug-27 23:38 292 3 gusting 6 19.4
2016-Aug-27 23:34 198 1 gusting 6 19.4
2016-Aug-27 23:28 316 3 gusting 6 20.0
2016-Aug-27 23:24 307 6 gusting 6 20.0
2016-Aug-27 23:18 289 1 gusting 6 20.0
2016-Aug-27 23:14 260 1 gusting 6 20.0
2016-Aug-27 23:08 319 20.6
2016-Aug-27 23:04 282 0 gusting 6 20.6
2016-Aug-27 22:58 315 3 gusting 6 20.6
2016-Aug-27 22:54 001 2 gusting 5 20.6
2016-Aug-27 22:48 302 2 gusting 6 20.6
2016-Aug-27 22:44 337 4 gusting 6 20.6
2016-Aug-27 22:40 073 2 gusting 6 20.6
2016-Aug-27 22:34 315 3 gusting 6 21.1
2016-Aug-27 22:30 319 2 gusting 6 21.1
2016-Aug-27 22:23 317 4 gusting 5 21.1
2016-Aug-27 22:19 014 2 gusting 5 21.7
2016-Aug-27 22:13 310 2 gusting 6 21.1
2016-Aug-27 22:09 329 1 gusting 6 21.7
2016-Aug-27 22:03 298 3 gusting 5 21.7
2016-Aug-27 21:59 348 0 gusting 6 21.7
2016-Aug-27 21:53 320 1 gusting 6 22.2
2016-Aug-27 21:49 292 1 gusting 6 22.2
2016-Aug-27 21:43 330 1 gusting 6 21.7
2016-Aug-27 21:39 174 1 gusting 7 22.2
2016-Aug-27 21:33 255 0 gusting 7 22.2
2016-Aug-27 21:29 329 2 gusting 6 22.2
2016-Aug-27 21:25 310 2 gusting 5 22.2
2016-Aug-27 21:19 303 3 gusting 5 22.8
2016-Aug-27 21:15 277 2 gusting 6 22.8
2016-Aug-27 21:08 312 3 gusting 5 23.3
2016-Aug-27 21:04 293 3 gusting 6 23.3
2016-Aug-27 20:58 305 2 gusting 5 23.3
2016-Aug-27 20:54 265 1 gusting 6 23.3
2016-Aug-27 20:48 320 3 gusting 6 23.3
2016-Aug-27 20:44 317 4 gusting 6 23.3
2016-Aug-27 20:38 144 1 gusting 6 23.9
2016-Aug-27 20:34 337 2 gusting 6 23.9
2016-Aug-27 20:28 251 3 gusting 6 23.9
2016-Aug-27 20:24 327 4 gusting 6 24.4
2016-Aug-27 20:18 220 1 gusting 6 24.4
2016-Aug-27 20:14 230 3 gusting 6 24.4
2016-Aug-27 20:10 312 5 gusting 6 24.4
2016-Aug-27 20:04 220 0 gusting 7 25.0
2016-Aug-27 20:00 327 4 gusting 6 25.0
2016-Aug-27 19:53 315 2 gusting 5 25.6
2016-Aug-27 19:49 327 3 gusting 6 26.1
2016-Aug-27 19:43 262 1 gusting 7 26.7
2016-Aug-27 19:39 300 3 gusting 5 26.7
2016-Aug-27 19:31 317 4 gusting 5 27.2
2016-Aug-27 19:29 286 3 gusting 5 27.2
2016-Aug-27 19:23 320 4 gusting 6 27.2
2016-Aug-27 19:19 320 0 gusting 5 27.8
2016-Aug-27 19:13 254 0 gusting 6 27.8
2016-Aug-27 19:09 260 27.8
2016-Aug-27 19:03 232 0 gusting 6 27.8
2016-Aug-27 18:59 323 4 gusting 7 27.8
2016-Aug-27 18:53 009 1 gusting 6 28.3
2016-Aug-27 18:49 344 4 gusting 6 28.3
2016-Aug-27 18:45 261 1 gusting 6 28.9
2016-Aug-27 18:39 334 28.9
2016-Aug-27 18:34 016 4 gusting 7 29.4
2016-Aug-27 18:28 240 0 gusting 7 29.4
2016-Aug-27 18:24 315 2 gusting 13 29.4
2016-Aug-27 18:18 011 2 gusting 8 29.4
2016-Aug-27 18:14 029 6 gusting 9 30.0
2016-Aug-27 18:08 331 1 gusting 9 30.6
2016-Aug-27 18:04 341 3 gusting 9 30.6
2016-Aug-27 17:58 348 5 gusting 9 30.6
2016-Aug-27 17:54 336 4 gusting 10 31.1
2016-Aug-27 17:48 315 6 gusting 12 31.7
2016-Aug-27 17:44 333 5 gusting 6 32.8
2016-Aug-27 17:38 322 3 gusting 6 32.8
2016-Aug-27 17:34 343 1 gusting 7 32.2
2016-Aug-27 17:30 320 4 gusting 9 32.2
2016-Aug-27 17:24 312 5 gusting 13 32.8
2016-Aug-27 17:20 288 2 gusting 8 33.3
2016-Aug-27 17:13 326 3 gusting 10 33.3
2016-Aug-27 17:09 122 0 gusting 13 33.9
2016-Aug-27 17:03 305 5 gusting 9 33.9
2016-Aug-27 16:59 286 1 gusting 6 35.0
2016-Aug-27 16:53 354 4 gusting 10 34.4
2016-Aug-27 16:47 334 6 gusting 7 35.6
2016-Aug-27 16:43 358 2 gusting 7 35.6
2016-Aug-27 16:39 354 6 gusting 6 36.1
2016-Aug-27 16:33 312 5 gusting 7 35.6
2016-Aug-27 16:29 303 4 gusting 6 36.1
2016-Aug-27 16:23 264 2 gusting 6 36.7
2016-Aug-27 16:19 243 3 gusting 7 36.1
2016-Aug-27 16:15 296 1 gusting 8 36.7
2016-Aug-27 16:09 233 4 gusting 11 37.2
2016-Aug-27 16:05 199 1 gusting 10 37.2
2016-Aug-27 15:58 210 5 gusting 10 37.2
2016-Aug-27 15:54 267 4 gusting 12 37.2
2016-Aug-27 15:48 206 8 gusting 7 37.2
2016-Aug-27 15:44 237 5 gusting 6 37.8
2016-Aug-27 15:38 205 3 gusting 8 37.8
2016-Aug-27 15:34 232 4 gusting 7 38.3
2016-Aug-27 15:28 182 2 gusting 7 37.8
2016-Aug-27 15:24 255 2 gusting 7 37.8
2016-Aug-27 15:18 202 1 gusting 6 38.3
2016-Aug-27 15:14 284 2 gusting 6 37.8
2016-Aug-27 15:08 215 37.8
2016-Aug-27 15:04 303 5 gusting 6 37.2
2016-Aug-27 15:00 234 0 gusting 4 37.8
2016-Aug-27 14:54 313 1 gusting 6 37.2
2016-Aug-27 14:50 267 2 gusting 6 36.7
2016-Aug-27 14:43 327 1 gusting 6 36.7
2016-Aug-27 14:39 262 36.7
2016-Aug-27 14:33 299 4 gusting 6 36.7
2016-Aug-27 14:29 282 1 gusting 3 36.7
2016-Aug-27 14:23 261 2 gusting 4 36.7
2016-Aug-27 14:19 172 0 gusting 6 36.1
2016-Aug-27 14:13 319 2 gusting 5 36.1
2016-Aug-27 14:09 305 2 gusting 6 36.1
2016-Aug-27 14:03 260 36.7
2016-Aug-27 13:59 257 2 gusting 6 36.1
2016-Aug-27 13:53 171 1 gusting 6 35.6
2016-Aug-27 13:49 237 1 gusting 5 35.0
2016-Aug-27 13:45 234 0 gusting 6 34.4
2016-Aug-27 13:39 327 5 gusting 5 35.0
2016-Aug-27 13:35 254 1 gusting 6 34.4
2016-Aug-27 13:28 277 3 gusting 6 35.0
2016-Aug-27 13:24 240 1 gusting 6 34.4
2016-Aug-27 13:18 326 4 gusting 7 33.9
2016-Aug-27 13:14 241 2 gusting 5 33.9
2016-Aug-27 13:08 324 3 gusting 6 33.9
2016-Aug-27 13:04 286 33.9
2016-Aug-27 12:58 320 4 gusting 5 33.3
2016-Aug-27 12:54 306 0 gusting 6 33.3
2016-Aug-27 12:48 326 2 gusting 7 33.3
2016-Aug-27 12:44 323 34.4
2016-Aug-27 12:38 232 2 gusting 5 33.3
2016-Aug-27 12:34 241 0 gusting 6 32.2
2016-Aug-27 12:30 293 1 gusting 7 31.7
2016-Aug-27 12:24 299 1 gusting 9 31.1
2016-Aug-27 12:20 330 2 gusting 7 31.1
2016-Aug-27 12:13 323 1 gusting 6 31.7
2016-Aug-27 12:09 268 1 gusting 6 31.1
2016-Aug-27 12:03 338 31.1
2016-Aug-27 11:59 296 1 gusting 6 30.6
2016-Aug-27 11:53 292 3 gusting 5 30.6
2016-Aug-27 11:49 355 1 gusting 6 30.6
2016-Aug-27 11:41 309 5 gusting 5 30.0
2016-Aug-27 11:39 237 2 gusting 5 30.0
2016-Aug-27 11:33 271 29.4
2016-Aug-27 11:29 302 2 gusting 6 28.9
2016-Aug-27 11:23 291 4 gusting 5 29.4
2016-Aug-27 11:19 307 5 gusting 4 29.4
2016-Aug-27 11:15 216 0 gusting 6 28.9
2016-Aug-27 11:09 305 3 gusting 5 28.3
2016-Aug-27 11:05 347 2 gusting 5 28.3
2016-Aug-27 10:58 330 2 gusting 5 27.8
2016-Aug-27 10:54 007 4 gusting 5 27.8
2016-Aug-27 10:48 296 0 gusting 6 27.2
2016-Aug-27 10:44 344 2 gusting 5 27.2
2016-Aug-27 10:38 299 2 gusting 5 26.7
2016-Aug-27 10:34 315 2 gusting 6 26.7
2016-Aug-27 10:28 293 0 gusting 4 26.7
2016-Aug-27 10:24 310 0 gusting 6 26.1
2016-Aug-27 10:18 316 3 gusting 5 26.1
2016-Aug-27 10:14 292 4 gusting 5 26.1
2016-Aug-27 10:08 296 4 gusting 4 26.1
2016-Aug-27 10:04 336 3 gusting 5 26.1
2016-Aug-27 10:00 312 2 gusting 5 26.1
2016-Aug-27 09:54 284 1 gusting 3 25.6
2016-Aug-27 09:50 329 0 gusting 3 25.6
2016-Aug-27 09:43 313 1 gusting 3 25.0
2016-Aug-27 09:39 278 0 gusting 5 24.4
2016-Aug-27 09:33 329 2 gusting 4 24.4
2016-Aug-27 09:29 341 1 gusting 5 23.9
2016-Aug-27 09:23 326 1 gusting 4 24.4
2016-Aug-27 09:19 345 0 gusting 2 24.4
2016-Aug-27 09:13 343 23.9
2016-Aug-27 09:09 305 23.3
2016-Aug-27 09:03 319 0 gusting 4 23.3
2016-Aug-27 08:59 341 2 gusting 3 23.3
2016-Aug-27 08:53 292 0 gusting 4 22.8
2016-Aug-27 08:49 319 1 gusting 5 22.8
2016-Aug-27 08:45 313 0 gusting 4 22.8
2016-Aug-27 08:39 320 1 gusting 4 23.3
2016-Aug-27 08:35 018 4 gusting 2 23.9
2016-Aug-27 08:28 322 0 gusting 2 23.3
2016-Aug-27 08:24 198 23.9
2016-Aug-27 08:18 341 23.9
2016-Aug-27 08:12 015 23.9
2016-Aug-27 08:08 330 0 gusting 1 23.9
2016-Aug-27 08:04 067 23.9
2016-Aug-27 07:58 156 23.9
2016-Aug-27 07:54 007 0 gusting 0 24.4
2016-Aug-27 07:48 345 23.9
2016-Aug-27 07:44 071 0 gusting 1 23.9
2016-Aug-27 07:38 002 23.9
2016-Aug-27 07:34 303 23.9
2016-Aug-27 07:28 302 0 gusting 0 24.4
2016-Aug-27 07:24 306 24.4
2016-Aug-27 07:20 037 23.9
2016-Aug-27 07:14 087 23.9
2016-Aug-27 07:09 087 23.9
2016-Aug-27 07:03 109 0 gusting 1 23.3
2016-Aug-27 06:59 101 22.8
2016-Aug-27 06:53 085 22.2
2016-Aug-27 06:49 229 21.1
2016-Aug-27 06:43 116 20.6
2016-Aug-27 06:39 275 20.6
2016-Aug-27 06:33 323 20.0
2016-Aug-27 06:29 230 20.0
2016-Aug-27 06:23 230 19.4
2016-Aug-27 06:19 289 0 gusting 2 19.4
2016-Aug-27 06:13 286 19.4
2016-Aug-27 06:09 310 0 gusting 1 19.4
2016-Aug-27 06:05 045 19.4
2016-Aug-27 05:59 045 19.4
2016-Aug-27 05:55 045 19.4
2016-Aug-27 05:48 056 19.4
2016-Aug-27 05:44 084 0 gusting 1 19.4
2016-Aug-27 05:38 082 0 gusting 0 19.4
2016-Aug-27 05:34 227 19.4
2016-Aug-27 05:28 035 20.0
2016-Aug-27 05:22 298 0 gusting 3 19.4
2016-Aug-27 05:18 312 1 gusting 3 20.0
2016-Aug-27 05:14 113 1 gusting 2 20.0
2016-Aug-27 05:08 135 20.0
2016-Aug-27 05:04 023 0 gusting 1 20.0
2016-Aug-27 04:58 118 20.0
2016-Aug-27 04:54 150 20.0
2016-Aug-27 04:50 358 20.0
2016-Aug-27 04:44 011 20.0
2016-Aug-27 04:40 330 20.0
2016-Aug-27 04:33 327 20.0
2016-Aug-27 04:29 285 1 gusting 2 20.0
2016-Aug-27 04:23 295 20.0
2016-Aug-27 04:19 333 20.0
2016-Aug-27 04:13 262 20.0
2016-Aug-27 04:09 262 20.0
2016-Aug-27 04:03 279 20.0
2016-Aug-27 03:59 324 20.0
2016-Aug-27 03:51 322 20.0
2016-Aug-27 03:49 322 20.0
2016-Aug-27 03:43 340 0 gusting 2 19.4
2016-Aug-27 03:39 337 1 gusting 1 19.4
2016-Aug-27 03:35 032 1 gusting 2 19.4
2016-Aug-27 03:29 331 0 gusting 2 20.0
2016-Aug-27 03:25 344 0 gusting 2 20.0
2016-Aug-27 03:18 355 0 gusting 1 20.0
2016-Aug-27 03:14 326 0 gusting 0 20.0
2016-Aug-27 03:08 347 0 gusting 1 20.6
2016-Aug-27 03:02 331 0 gusting 0 20.6
2016-Aug-27 02:58 351 21.1
2016-Aug-27 02:54 202 21.1
2016-Aug-27 02:48 202 21.7
2016-Aug-27 02:44 202 21.7
2016-Aug-27 02:38 202 21.7
2016-Aug-27 02:34 217 0 gusting 1 21.7
2016-Aug-27 02:28 157 0 gusting 1 21.1
2016-Aug-27 02:24 161 21.1
2016-Aug-27 02:18 172 2 gusting 3 21.1
2016-Aug-27 02:14 150 2 gusting 4 21.1
2016-Aug-27 02:10 202 3 gusting 4 21.1
2016-Aug-27 02:04 205 3 gusting 4 21.1
2016-Aug-27 01:59 202 4 gusting 3 21.7
2016-Aug-27 01:53 188 3 gusting 4 21.7
2016-Aug-27 01:49 210 2 gusting 3 21.7
2016-Aug-27 01:41 192 2 gusting 3 22.2
2016-Aug-27 01:39 165 1 gusting 3 22.2
2016-Aug-27 01:33 184 1 gusting 2 22.2
2016-Aug-27 01:29 167 1 gusting 1 22.2
2016-Aug-27 01:23 068 1 gusting 2 22.2
2016-Aug-27 01:19 113 22.2
2016-Aug-27 01:13 164 0 gusting 1 22.2
2016-Aug-27 01:09 158 0 gusting 2 21.7
2016-Aug-27 01:03 160 1 gusting 4 21.7
2016-Aug-27 00:59 195 2 gusting 4 21.7
2016-Aug-27 00:55 203 3 gusting 4 21.7
2016-Aug-27 00:48 182 2 gusting 5 21.7
2016-Aug-27 00:38 182 3 gusting 6 22.2
2016-Aug-27 00:34 198 2 gusting 5 22.2
2016-Aug-27 00:28 194 2 gusting 5 22.2
2016-Aug-27 00:24 206 2 gusting 5 22.8
2016-Aug-27 00:18 219 1 gusting 4 22.8
2016-Aug-27 00:12 208 1 gusting 3 22.8
2016-Aug-27 00:08 210 2 gusting 3 23.3
2016-Aug-27 00:04 240 2 gusting 3 23.3
2016-Aug-26 23:58 182 2 gusting 4 23.3
2016-Aug-26 23:54 199 3 gusting 4 23.3
2016-Aug-26 23:48 219 4 gusting 4 23.3
2016-Aug-26 23:44 229 1 gusting 4 23.9
2016-Aug-26 23:40 212 2 gusting 3 23.9
2016-Aug-26 23:34 177 1 gusting 2 24.4
2016-Aug-26 23:30 226 1 gusting 1 24.4
2016-Aug-26 23:23 172 0 gusting 2 24.4
2016-Aug-26 23:19 185 1 gusting 2 24.4
2016-Aug-26 23:11 194 1 gusting 3 24.4
2016-Aug-26 23:09 195 0 gusting 3 24.4
2016-Aug-26 23:03 262 1 gusting 4 25.0
2016-Aug-26 22:57 223 2 gusting 2 25.0
2016-Aug-26 22:53 206 0 gusting 2 25.6
2016-Aug-26 22:49 198 0 gusting 2 25.6
2016-Aug-26 22:43 167 0 gusting 3 25.6
2016-Aug-26 22:39 201 2 gusting 4 25.6
2016-Aug-26 22:31 217 3 gusting 2 26.1
2016-Aug-26 22:29 188 2 gusting 2 26.1
2016-Aug-26 22:23 209 1 gusting 2 26.1
2016-Aug-26 22:19 209 0 gusting 2 26.1
2016-Aug-26 22:15 236 0 gusting 2 26.7
2016-Aug-26 22:08 230 1 gusting 2 26.7
2016-Aug-26 22:04 248 27.2
2016-Aug-26 21:58 229 0 gusting 0 27.2
2016-Aug-26 21:54 312 27.8
2016-Aug-26 21:48 195 27.8
2016-Aug-26 21:44 195 27.8
2016-Aug-26 21:38 299 27.8
2016-Aug-26 21:34 299 27.8
2016-Aug-26 21:28 347 27.8
2016-Aug-26 21:24 315 27.8
2016-Aug-26 21:18 319 0 gusting 2 28.3
2016-Aug-26 21:14 313 28.3
2016-Aug-26 21:10 236 28.3
2016-Aug-26 21:04 172 28.3
2016-Aug-26 21:00 299 28.3
2016-Aug-26 20:53 334 28.3
2016-Aug-26 20:49 244 28.9
2016-Aug-26 20:43 316 0 gusting 0 28.9
2016-Aug-26 20:39 298 28.9
2016-Aug-26 20:33 248 0 gusting 5 28.9
2016-Aug-26 20:29 291 0 gusting 3 28.9
2016-Aug-26 20:23 261 0 gusting 2 29.4
2016-Aug-26 20:19 284 29.4
2016-Aug-26 20:13 350 0 gusting 2 29.4
2016-Aug-26 20:09 225 30.0
2016-Aug-26 20:03 126 30.0
2016-Aug-26 19:59 312 1 gusting 3 30.0
2016-Aug-26 19:53 336 30.0
2016-Aug-26 19:49 292 0 gusting 2 30.0
2016-Aug-26 19:45 341 0 gusting 0 30.0
2016-Aug-26 19:39 236 30.0
2016-Aug-26 19:30 312 2 gusting 6 30.0
2016-Aug-26 19:28 307 2 gusting 6 30.0
2016-Aug-26 19:24 324 2 gusting 6 30.0
2016-Aug-26 19:18 319 3 gusting 6 30.0
2016-Aug-26 19:14 313 6 gusting 6 30.0
2016-Aug-26 19:08 326 3 gusting 6 30.6
2016-Aug-26 19:04 288 4 gusting 6 30.6
2016-Aug-26 18:58 317 3 gusting 5 30.6
2016-Aug-26 18:54 299 2 gusting 6 31.1
2016-Aug-26 18:48 324 4 gusting 8 31.1
2016-Aug-26 18:44 316 6 gusting 9 31.7
2016-Aug-26 18:40 295 4 gusting 5 32.2
2016-Aug-26 18:34 312 1 gusting 3 33.3
2016-Aug-26 18:30 302 1 gusting 4 32.8
2016-Aug-26 18:23 236 0 gusting 5 33.3
2016-Aug-26 18:19 306 5 gusting 8 33.3
2016-Aug-26 18:13 296 2 gusting 7 33.3
2016-Aug-26 18:09 323 5 gusting 6 33.9
2016-Aug-26 18:03 306 2 gusting 6 33.9
2016-Aug-26 17:59 284 1 gusting 7 33.9
2016-Aug-26 17:53 226 33.9
2016-Aug-26 17:49 302 0 gusting 8 34.4
2016-Aug-26 17:43 260 4 gusting 9 34.4
2016-Aug-26 17:39 320 3 gusting 10 34.4
2016-Aug-26 17:33 322 2 gusting 8 35.0
2016-Aug-26 17:29 227 1 gusting 6 35.6
2016-Aug-26 17:23 261 0 gusting 10 35.6
2016-Aug-26 17:19 303 2 gusting 12 36.1
2016-Aug-26 17:15 268 2 gusting 7 36.1
2016-Aug-26 17:09 293 4 gusting 8 36.7
2016-Aug-26 17:04 215 2 gusting 7 36.7
2016-Aug-26 16:58 271 2 gusting 8 36.7
2016-Aug-26 16:54 237 4 gusting 7 37.2
2016-Aug-26 16:48 253 3 gusting 6 37.8
2016-Aug-26 16:44 232 0 gusting 6 38.3
2016-Aug-26 16:38 267 38.9
2016-Aug-26 16:34 278 1 gusting 7 39.4
2016-Aug-26 16:28 261 1 gusting 4 38.9
2016-Aug-26 16:24 219 1 gusting 7 38.9
2016-Aug-26 16:18 246 3 gusting 8 38.3
2016-Aug-26 16:14 272 3 gusting 6 38.3
2016-Aug-26 16:08 286 4 gusting 5 38.3
2016-Aug-26 16:04 261 2 gusting 4 38.9
2016-Aug-26 16:00 255 2 gusting 6 38.3
2016-Aug-26 15:54 293 3 gusting 6 38.3
2016-Aug-26 15:50 284 1 gusting 7 38.3
2016-Aug-26 15:41 262 2 gusting 7 38.9
2016-Aug-26 15:37 208 3 gusting 7 38.9
2016-Aug-26 15:33 239 2 gusting 4 38.9
2016-Aug-26 15:29 271 2 gusting 6 38.9
2016-Aug-26 15:23 247 2 gusting 7 38.9
2016-Aug-26 15:19 274 0 gusting 6 38.9
2016-Aug-26 15:13 306 4 gusting 5 38.3
2016-Aug-26 15:09 305 2 gusting 7 38.3
2016-Aug-26 15:03 296 3 gusting 6 38.3
2016-Aug-26 14:59 264 3 gusting 7 38.3
2016-Aug-26 14:53 250 1 gusting 5 37.8
2016-Aug-26 14:49 267 2 gusting 6 38.3
2016-Aug-26 14:45 236 1 gusting 6 38.3
2016-Aug-26 14:39 292 1 gusting 6 37.8
2016-Aug-26 14:35 022 0 gusting 6 37.8
2016-Aug-26 14:28 209 2 gusting 7 38.3
2016-Aug-26 14:24 229 6 gusting 9 38.3
2016-Aug-26 14:18 247 1 gusting 7 38.3
2016-Aug-26 14:14 147 6 gusting 5 38.3
2016-Aug-26 14:08 253 3 gusting 5 37.8
2016-Aug-26 14:02 248 1 gusting 6 37.8
2016-Aug-26 13:58 258 2 gusting 6 37.2
2016-Aug-26 13:54 230 4 gusting 7 36.7
2016-Aug-26 13:48 229 2 gusting 6 36.1
2016-Aug-26 13:44 282 4 gusting 6 36.1
2016-Aug-26 13:38 275 2 gusting 4 36.7
2016-Aug-26 13:34 288 2 gusting 5 37.2
2016-Aug-26 13:30 206 1 gusting 6 36.1
2016-Aug-26 13:24 299 2 gusting 6 35.6
2016-Aug-26 13:20 324 1 gusting 4 36.1
2016-Aug-26 13:13 289 1 gusting 7 35.0
2016-Aug-26 13:09 254 1 gusting 8 34.4
2016-Aug-26 13:03 334 2 gusting 5 34.4
2016-Aug-26 12:59 239 1 gusting 6 34.4
2016-Aug-26 12:53 251 1 gusting 5 34.4
2016-Aug-26 12:49 336 1 gusting 6 34.4
2016-Aug-26 12:43 298 4 gusting 6 34.4
2016-Aug-26 12:39 279 1 gusting 6 33.9
2016-Aug-26 12:33 307 5 gusting 6 33.3
2016-Aug-26 12:29 255 1 gusting 5 33.3
2016-Aug-26 12:23 282 2 gusting 6 33.3
2016-Aug-26 12:19 261 32.8
2016-Aug-26 12:15 244 3 gusting 7 32.8
2016-Aug-26 12:09 315 4 gusting 6 32.8
2016-Aug-26 12:05 247 0 gusting 6 32.8
2016-Aug-26 11:58 295 0 gusting 6 32.2
2016-Aug-26 11:54 291 6 gusting 7 31.7
2016-Aug-26 11:48 305 6 gusting 5 31.7
2016-Aug-26 11:44 265 0 gusting 6 31.7
2016-Aug-26 11:38 282 2 gusting 6 31.1
2016-Aug-26 11:34 009 3 gusting 6 31.1
2016-Aug-26 11:28 292 3 gusting 5 31.1
2016-Aug-26 11:24 277 0 gusting 6 30.6
2016-Aug-26 11:18 272 0 gusting 6 30.0
2016-Aug-26 11:14 340 4 gusting 6 30.0
2016-Aug-26 11:10 286 1 gusting 5 30.0
2016-Aug-26 11:04 243 1 gusting 4 30.0
2016-Aug-26 11:00 257 0 gusting 4 29.4
2016-Aug-26 10:53 251 28.9
2016-Aug-26 10:49 278 28.9
2016-Aug-26 10:43 313 2 gusting 6 28.3
2016-Aug-26 10:39 271 1 gusting 5 28.3
2016-Aug-26 10:33 236 1 gusting 3 27.8
2016-Aug-26 10:29 254 2 gusting 4 27.2
2016-Aug-26 10:23 312 3 gusting 6 27.2
2016-Aug-26 10:19 327 3 gusting 3 27.2
2016-Aug-26 10:13 277 3 gusting 4 26.7
2016-Aug-26 10:09 327 1 gusting 6 26.1
2016-Aug-26 10:03 292 3 gusting 6 26.1
2016-Aug-26 09:59 316 5 gusting 4 26.1
2016-Aug-26 09:55 296 0 gusting 4 25.6
2016-Aug-26 09:49 014 0 gusting 4 25.0
2016-Aug-26 09:45 333 1 gusting 3 25.0
2016-Aug-26 09:38 306 3 gusting 5 25.0
2016-Aug-26 09:34 315 2 gusting 3 24.4
2016-Aug-26 09:28 330 2 gusting 4 24.4
2016-Aug-26 09:24 344 1 gusting 4 24.4
2016-Aug-26 09:18 312 1 gusting 4 23.9
2016-Aug-26 09:12 326 1 gusting 3 24.4
2016-Aug-26 09:08 233 24.4
2016-Aug-26 09:04 289 1 gusting 2 24.4
2016-Aug-26 08:58 019 23.9
2016-Aug-26 08:54 319 23.9
2016-Aug-26 08:48 008 23.9
2016-Aug-26 08:44 296 23.9
2016-Aug-26 08:40 004 23.3
2016-Aug-26 08:34 004 23.3
2016-Aug-26 08:30 116 23.3
2016-Aug-26 08:23 344 2 gusting 3 22.8
2016-Aug-26 08:19 286 22.8
2016-Aug-26 08:13 330 23.3
2016-Aug-26 08:09 067 23.3
2016-Aug-26 08:03 142 23.3
2016-Aug-26 07:59 355 23.3
2016-Aug-26 07:53 340 23.3
2016-Aug-26 07:49 324 23.3
2016-Aug-26 07:43 348 23.3
2016-Aug-26 07:39 309 23.3
2016-Aug-26 07:33 220 23.3
2016-Aug-26 07:29 061 23.3
2016-Aug-26 07:23 123 0 gusting 2 22.8
2016-Aug-26 07:19 343 22.8
2016-Aug-26 07:15 125 22.2
2016-Aug-26 07:09 312 0 gusting 3 21.7
2016-Aug-26 07:04 106 21.7
2016-Aug-26 06:58 350 21.1
2016-Aug-26 06:54 281 20.6
2016-Aug-26 06:48 244 0 gusting 0 20.0
2016-Aug-26 06:44 300 20.0
2016-Aug-26 06:38 132 0 gusting 2 19.4
2016-Aug-26 06:34 133 2 gusting 0 19.4
2016-Aug-26 06:28 078 18.9
2016-Aug-26 06:24 105 18.3
2016-Aug-26 06:18 196 18.3
2016-Aug-26 06:14 123 18.3
2016-Aug-26 06:10 112 18.3
2016-Aug-26 06:04 112 18.3
2016-Aug-26 06:00 272 18.3
2016-Aug-26 05:53 300 18.3
2016-Aug-26 05:49 033 18.3
2016-Aug-26 05:43 315 18.3
2016-Aug-26 05:39 316 18.3
2016-Aug-26 05:33 298 18.9
2016-Aug-26 05:29 223 18.9
2016-Aug-26 05:21 309 18.9
2016-Aug-26 05:19 282 18.9
2016-Aug-26 05:13 330 0 gusting 1 18.9
2016-Aug-26 05:09 310 18.9
2016-Aug-26 05:03 310 18.9
2016-Aug-26 04:59 302 18.9
2016-Aug-26 04:55 289 18.9
2016-Aug-26 04:49 291 0 gusting 1 18.9
2016-Aug-26 04:45 307 0 gusting 1 18.9
2016-Aug-26 04:38 288 19.4
2016-Aug-26 04:34 288 18.9
2016-Aug-26 04:28 307 18.9
2016-Aug-26 04:24 300 0 gusting 3 18.9
2016-Aug-26 04:18 331 1 gusting 3 18.9
2016-Aug-26 04:14 015 0 gusting 2 19.4
2016-Aug-26 04:08 264 20.0
2016-Aug-26 04:04 277 20.0
2016-Aug-26 03:58 212 20.0
2016-Aug-26 03:54 068 20.0
2016-Aug-26 03:48 101 20.0
2016-Aug-26 03:44 099 20.0
2016-Aug-26 03:40 046 20.0
2016-Aug-26 03:34 135 0 gusting 1 20.0
2016-Aug-26 03:30 094 20.0
2016-Aug-26 03:24 113 0 20.0
2016-Aug-26 03:19 133 20.0
2016-Aug-26 03:13 136 1 gusting 2 20.0
2016-Aug-26 03:09 229 20.0
2016-Aug-26 03:03 085 20.0
2016-Aug-26 02:57 078 20.0
2016-Aug-26 02:53 104 20.0
2016-Aug-26 02:49 066 20.6
2016-Aug-26 02:43 071 20.0
2016-Aug-26 02:39 320 20.0
2016-Aug-26 02:33 312 20.0
2016-Aug-26 02:29 316 20.0
2016-Aug-26 02:25 295 20.0
2016-Aug-26 02:19 298 20.0
2016-Aug-26 02:15 334 0 gusting 0 20.0
2016-Aug-26 02:08 116 20.0
2016-Aug-26 02:04 116 20.0